Location: Unspecified
(43.4680°N, 87.1740°E)
Time: 21:30:57
(UTC+00:00)

PAYLOAD A - Pass Details

Date: 17 April 2021
Orbit: 691 x 832 km, 98.4° (Epoch: 12 May)

Event Time Altitude Azimuth Distance (km) Brightness Sun altitude
Rises 22:31:54 0° 7° (N) 3,302 7.8 -9.7°
Reaches altitude 10° 22:34:21 10° 2° (N) 2,348 6.9 -9.3°
Maximum altitude 22:39:16 46° 290° (WNW) 1,012 4.4 -8.5°
Drops below altitude 10° 22:43:59 10° 218° (SW) 2,244 5.9 -7.7°
Enters shadow 22:45:17 - 214° (SW) 2,753 6.4 -7.5°
